Temp_Advection
nan nan nan nan nan nan nan nan nan nan nan nan nan nan nan nan nan nan nan nan nan nan nan nan nan nan nan nan nan nan nan nan nan
nan -0 0 -0 0 0 -0 -0 0 0 -0 -0 -0 -0 0 0 0 0 0 0 0 0 0 0 -0 -0 -0 -0 0 0 -0 -0 nan
nan 0 -0 -0 0 -0 -0 -0 -0 0 0 0 0 -0 0 0 0 0 0 0 0 0 0 0 0 0 -0 -0 0 -0 -0 0 nan
nan 0 0 -0 -0 -0 0 0 0 0 0 0 0 0 0 -0 -0 0 0 0 0 0 0 0 0 0 -0 -0 -0 -0 -0 0 nan
nan 0 0 -0 -0 -0 -0 -0 0 0 0 0 0 -0 -0 0 0 -0 0 0 0 0 0 0 0 0 -0 -0 -0 0 0 0 nan
nan -0 0 0 -0 -0 -0 0 0 0 0 0 0 0 0 -0 -0 -0 -0 0 0 0 0 0 0 0 0 0 0 -0 0 0 nan
nan -0 -0 0 0 -0 -0 -0 0 0 0 0 0 0 0 -0 -0 -0 -0 0 0 0 0 0 0 0 0 -0 0 0 -0 0 nan
nan -0 -0 0 0 0 0 -0 0 0 0 0 0 0 -0 -0 -0 -0 -0 -0 0 0 0 0 0 0 0 -0 -0 0 0 0 nan
nan -0 -0 -0 -0 0 0 0 0 0 0 0 0 0 -0 -0 -0 -0 -0 -0 -0 -0 0 0 0 -0 -0 -0 -0 -0 0 0 nan
nan -0 -0 -0 -0 0 0 0 -0 -0 0 0 0 -0 0 -0 -0 0 -0 -0 -0 -0 -0 0 0 -0 -0 -0 0 0 0 0 nan
nan -0 0 0 -0 -0 0 -0 -0 0 -0 -0 -0 -0 0 0 0 0 -0 -0 -0 -0 -0 -0 -0 -0 -0 0 0 0 0 0 nan
nan 0 -0 0 0 0 -0 -0 -0 -0 0 -0 -0 -0 -0 -0 0 0 0 -0 -0 -0 -0 -0 -0 -0 -0 -0 -0 -0 -0 0 nan
nan 0 0 0 0 0 0 -0 -0 -0 0 0 -0 -0 -0 0 0 -0 -0 0 0 -0 -0 -0 -0 -0 -0 -0 -0 -0 -0 -0 nan
nan -0 0 0 -0 0 0 0 -0 -0 -0 -0 -0 -0 -0 -0 0 -0 -0 -0 0 0 0 -0 -0 -0 -0 -0 -0 -0 -0 -0 nan
nan -0 -0 0 0 0 -0 0 0 -0 -0 -0 -0 0 -0 -0 -0 -0 -0 -0 0 0 0 0 -0 -0 -0 -0 -0 -0 -0 -0 nan
nan -0 -0 -0 -0 0 0 0 0 0 -0 -0 -0 -0 -0 -0 -0 -0 -0 -0 0 -0 0 0 0 -0 -0 -0 -0 -0 -0 -0 nan
nan -0 -0 -0 -0 -0 -0 -0 -0 -0 -0 -0 -0 -0 -0 0 -0 -0 -0 -0 0 -0 -0 -0 0 0 -0 -0 -0 -0 -0 -0 nan
nan -0 -0 -0 -0 -0 -0 -0 -0 -0 -0 -0 -0 -0 -0 -1 -0 -0 -0 -0 -0 -0 -0 -0 -0 -0 -0 -0 -0 -0 -0 -1 nan
nan -0 -0 -0 -0 -0 -0 -0 0 -0 -0 -0 -0 0 -0 -0 -1 -1 -1 -1 -1 -0 -0 -0 -0 -0 -0 -0 -1 -0 -0 -0 nan
nan nan nan nan nan nan nan nan nan nan nan nan nan nan nan nan nan nan nan nan nan nan nan nan nan nan nan nan nan nan nan nan nan
Wind_Speed
14 15 6 7 9 9 9 8 7 8 9 10 11 11 11 10 10 11 11 11 10 11 12 13 14 14 14 14 13 12 12 12 13
15 10 4 6 6 7 5 5 5 6 8 9 9 10 11 10 9 10 10 9 8 10 11 12 11 11 11 11 11 12 12 11 11
12 8 4 2 4 4 1 2 3 5 5 6 8 8 9 9 9 9 8 8 8 9 10 9 9 9 10 10 10 10 10 9 9
5 2 1 2 2 1 1 2 3 4 4 4 5 7 8 8 8 7 7 7 5 8 7 6 6 7 7 8 8 8 7 8 8
2 3 3 1 2 1 1 1 2 4 5 5 3 3 6 8 8 6 5 4 4 6 5 3 4 5 5 5 6 6 6 6 5
2 1 2 1 2 3 0 1 2 4 5 6 3 3 5 5 7 6 5 4 3 4 4 4 4 3 3 3 3 3 3 3 4
5 4 1 2 3 2 1 2 3 4 6 7 3 2 4 5 6 5 5 3 2 2 3 4 3 3 1 2 2 2 2 3 3
4 5 4 1 2 1 2 3 4 5 7 7 5 2 4 4 4 5 5 3 2 1 2 3 3 2 1 1 1 1 1 1 1
4 4 5 3 3 3 3 4 4 3 4 5 5 3 4 4 2 5 6 4 3 0 1 1 2 2 3 4 4 3 2 2 2
2 4 5 6 5 4 3 2 3 3 3 1 3 7 5 4 3 4 5 4 3 3 1 1 3 5 5 5 5 5 4 4 4
3 5 4 3 3 2 1 2 2 2 4 6 5 5 9 8 8 6 8 8 5 5 3 3 4 6 6 5 5 6 7 7 7
2 4 3 2 1 3 2 5 3 4 5 6 10 9 10 11 11 11 9 9 9 8 7 5 5 5 6 6 7 7 8 9 8
1 3 5 1 4 3 5 6 7 8 9 10 11 12 10 13 12 12 11 10 10 10 12 10 8 6 5 7 7 9 10 11 11
1 1 3 6 5 8 8 6 6 7 8 10 12 11 9 12 13 14 15 14 12 14 13 13 13 10 10 11 9 8 12 11 13
3 1 1 4 8 6 7 8 8 7 10 12 12 12 12 11 16 16 16 13 14 15 14 14 14 14 13 15 16 14 12 13 15
5 5 3 3 4 6 10 10 9 8 9 10 11 11 13 14 12 17 19 17 17 16 16 17 17 17 18 17 18 20 19 14 14
8 10 8 6 4 4 6 5 4 6 8 10 13 6 12 4 13 6 7 17 18 19 20 20 19 19 20 21 22 21 21 20 15
5 8 10 11 10 8 7 6 6 8 6 9 6 7 5 21 4 11 12 5 8 12 15 17 22 24 25 26 26 24 23 22 21
5 6 7 8 10 11 10 9 10 10 11 9 10 11 14 14 14 18 23 23 20 18 17 17 16 14 18 22 23 26 27 24 25
7 8 8 9 9 10 11 10 10 11 12 13 15 15 16 16 14 21 23 21 20 20 20 20 20 19 21 22 24 22 22 28 27
Wind_Direction
103 107 86 40 54 62 81 90 94 90 83 82 79 82 79 90 102 106 109 110 109 101 105 103 99 95 93 90 91 88 88 91 96
113 124 11 29 67 73 64 89 108 92 85 81 81 81 77 82 95 107 113 119 120 113 114 110 102 94 90 91 88 86 87 91 94
133 150 202 326 15 11 38 115 118 111 96 83 81 80 66 72 99 100 111 120 128 119 115 113 106 99 96 95 92 84 82 87 93
154 187 264 342 22 69 138 143 139 127 130 101 89 79 69 68 85 98 112 122 144 128 124 117 104 92 92 97 94 86 84 86 89
154 185 224 34 348 309 31 75 146 145 148 138 113 72 71 67 62 73 87 125 133 140 143 145 120 100 95 89 88 81 76 83 83
25 351 225 173 270 295 323 81 113 150 145 134 99 88 86 62 45 47 62 85 119 136 150 132 114 111 100 89 95 99 99 100 90
350 357 334 185 218 258 26 58 117 145 143 131 142 115 94 62 47 29 34 60 103 127 138 134 140 135 120 75 83 118 110 107 104
360 5 16 273 211 191 115 86 106 137 152 152 182 149 60 65 39 4 6 30 64 135 147 147 158 156 152 126 154 107 144 133 112
6 18 36 74 106 120 120 96 85 126 157 194 200 183 285 343 349 347 343 0 18 70 185 174 210 245 274 267 241 243 227 212 209
54 77 68 69 80 116 119 114 30 40 90 169 244 236 253 276 297 291 323 353 3 354 351 215 245 260 273 259 253 245 236 234 236
169 107 73 100 90 87 138 203 253 255 277 278 276 271 247 242 247 262 296 300 314 327 333 296 289 283 267 251 246 247 250 248 249
212 162 109 113 202 178 281 260 273 283 292 296 270 264 258 247 251 256 270 287 294 293 293 295 297 300 271 260 255 255 250 252 254
294 204 182 153 203 204 234 268 282 280 280 294 296 284 259 245 251 252 257 260 279 294 287 284 283 274 293 275 273 271 264 260 256
339 292 217 209 235 240 253 280 287 285 293 306 308 312 277 238 253 253 253 250 256 270 282 290 283 273 257 264 278 278 275 276 269
22 342 264 235 224 240 252 268 286 304 309 307 303 311 309 286 252 249 249 247 255 263 270 277 289 283 271 255 262 273 283 276 277
16 12 347 300 266 247 246 249 276 297 307 315 310 298 297 300 301 265 252 253 255 262 266 272 278 281 275 273 263 258 267 276 279
309 323 338 339 328 301 286 285 305 307 313 327 323 332 314 220 331 323 278 257 262 267 269 268 270 275 275 274 271 267 264 266 272
318 314 316 322 333 326 322 318 318 307 303 315 326 327 309 319 324 306 314 304 295 301 297 291 274 271 272 273 273 271 267 264 254
346 339 327 316 313 318 330 328 308 301 302 295 286 286 302 323 310 304 302 301 303 301 298 298 300 295 284 280 284 274 266 263 251
341 333 328 326 322 321 318 313 309 304 299 299 296 287 286 287 304 315 309 312 305 298 299 295 293 293 294 289 291 291 280 261 257
Height
1565 1567 1566 1566 1567 1566 1565 1565 1566 1566 1566 1566 1566 1567 1568 1568 1567 1568 1568 1569 1570 1571 1572 1573 1573 1574 1574 1575 1575 1576 1576 1576 1577
1566 1567 1567 1567 1568 1567 1567 1566 1568 1568 1567 1568 1569 1570 1570 1569 1570 1570 1570 1571 1572 1573 1574 1575 1576 1576 1576 1577 1577 1578 1578 1579 1579
1566 1568 1568 1568 1568 1567 1568 1568 1569 1569 1569 1571 1572 1572 1572 1572 1572 1572 1573 1573 1574 1574 1576 1577 1577 1578 1578 1579 1579 1579 1580 1581 1581
1568 1569 1569 1569 1569 1570 1570 1570 1569 1570 1571 1573 1574 1574 1574 1575 1574 1574 1574 1575 1576 1576 1576 1578 1579 1579 1580 1581 1581 1581 1582 1583 1583
1568 1569 1570 1570 1570 1570 1570 1570 1570 1572 1572 1574 1576 1576 1576 1576 1576 1576 1576 1577 1578 1578 1578 1579 1580 1580 1581 1582 1582 1583 1583 1584 1585
1568 1568 1569 1570 1570 1570 1571 1570 1571 1572 1573 1575 1576 1577 1577 1577 1577 1577 1578 1578 1579 1579 1580 1581 1581 1582 1583 1583 1584 1584 1584 1585 1586
1568 1568 1569 1569 1569 1570 1570 1571 1572 1573 1574 1576 1577 1578 1578 1578 1578 1578 1579 1579 1580 1579 1581 1582 1583 1583 1583 1584 1584 1584 1585 1586 1586
1569 1568 1568 1569 1569 1570 1571 1572 1572 1574 1575 1576 1577 1579 1578 1578 1579 1580 1581 1580 1580 1581 1581 1582 1583 1584 1584 1585 1585 1585 1586 1586 1587
1569 1569 1569 1569 1570 1570 1572 1573 1573 1575 1576 1576 1577 1578 1579 1579 1580 1580 1580 1580 1581 1581 1581 1582 1583 1583 1584 1585 1585 1585 1586 1587 1587
1569 1570 1571 1571 1572 1573 1573 1574 1575 1575 1576 1576 1577 1578 1579 1580 1580 1580 1580 1580 1581 1580 1581 1582 1582 1583 1584 1584 1585 1585 1586 1587 1587
1569 1570 1571 1571 1572 1573 1573 1575 1576 1576 1577 1577 1577 1577 1578 1579 1580 1580 1580 1580 1580 1581 1581 1581 1582 1583 1583 1584 1584 1585 1585 1586 1586
1569 1570 1571 1572 1573 1573 1574 1574 1574 1575 1575 1576 1576 1576 1576 1578 1579 1578 1579 1579 1579 1580 1581 1581 1581 1582 1582 1583 1583 1584 1584 1585 1585
1568 1569 1571 1571 1572 1573 1573 1574 1574 1575 1575 1575 1574 1573 1574 1575 1576 1577 1577 1578 1578 1579 1580 1580 1580 1580 1581 1582 1582 1582 1582 1583 1583
1568 1569 1570 1571 1572 1573 1573 1573 1573 1574 1574 1573 1573 1572 1572 1573 1574 1574 1575 1576 1577 1579 1579 1579 1578 1578 1579 1580 1580 1581 1581 1581 1581
1569 1570 1571 1571 1571 1572 1572 1572 1572 1573 1572 1572 1572 1570 1569 1569 1570 1572 1573 1574 1575 1576 1577 1576 1576 1576 1577 1577 1577 1578 1579 1578 1579
1571 1571 1571 1571 1570 1570 1570 1571 1572 1572 1570 1570 1569 1568 1568 1568 1568 1568 1570 1572 1572 1573 1573 1573 1574 1574 1574 1574 1575 1575 1576 1575 1576
1571 1571 1571 1571 1570 1570 1569 1569 1570 1571 1570 1569 1568 1567 1567 1565 1565 1565 1566 1567 1569 1569 1569 1569 1570 1570 1571 1571 1571 1571 1572 1572 1573
1568 1569 1570 1570 1569 1568 1568 1568 1569 1569 1570 1569 1569 1567 1566 1564 1563 1564 1564 1565 1565 1565 1565 1565 1566 1566 1566 1566 1567 1567 1567 1568 1569
1567 1567 1567 1567 1568 1568 1567 1567 1567 1567 1567 1568 1568 1567 1566 1564 1559 1560 1561 1562 1562 1563 1563 1563 1563 1563 1562 1562 1562 1562 1562 1563 1564
1566 1566 1566 1566 1566 1565 1565 1565 1565 1565 1565 1564 1564 1565 1565 1563 1561 1556 1556 1557 1557 1558 1559 1559 1559 1559 1558 1558 1558 1557 1556 1557 1558